Regional Weather Roundup
Issued by NWS

Home | Current Version | Previous Version | Graphics & Text | Print | Product List | Glossary On
Versions: 1 2 3 4 5 6 7 8 9 10 11 12 13 14 15 16 17 18 19 20 21 22 23 24 25 26 27 28 29 30 31 32 33 34 35 36 37 38 39 40 41 42 43 44 45 46 47 48 49 50
000
ASUS43 KLSX 290307
RWRMO

WEATHER SUMMARY FOR MISSOURI
NATIONAL WEATHER SERVICE SPRINGFIELD MO
1000 PM CDT SUN MAY 28 2017

NOTE: "FAIR" INDICATES FEW OR NO CLOUDS BELOW 12,000 FEET WITH NO
       SIGNIFICANT WEATHER AND/OR OBSTRUCTIONS TO VISIBILITY.
       CURRENT SKY AND/OR WEATHER CONDITIONS ARE NOT AVAILABLE FOR
       CHILLICOTHE AND FARMINGTON.

MOZ001>031-035>038-043-044-053-054-290400-
...NORTHERN AND WESTERN MISSOURI...

CITY           SKY/WX    TMP DP  RH WIND       PRES   REMARKS
KANSAS CTY INT CLEAR     67  52  58 W6        29.91R
KANSAS C DTWN  CLEAR     72  50  45 SW6       29.89R
LEE`S SUMMIT   CLEAR     68  53  58 SW6       29.91R
ST JOSEPH      CLEAR     65  52  62 CALM      29.91R
CHILLICOTHE      N/A     69  52  54 VRB6      29.89R
KIRKSVILLE     MOCLDY    66  50  56 SW5       29.87R

$$
MOZ066>068-077>081-088>096-101>105-290400-
...SOUTHWEST MISSOURI...

CITY           SKY/WX    TMP DP  RH WIND       PRES   REMARKS
SPRINGFIELD    CLEAR     64  56  75 S8        29.97R
JOPLIN         CLEAR     63  57  81 S6        29.97R
BRANSON        CLEAR     64  55  72 CALM      30.00R

$$
MOZ032>034-039>042-045>050-055>058-069>072-290400-
...CENTRAL MISSOURI...

CITY           SKY/WX    TMP DP  RH WIND       PRES   REMARKS
COLUMBIA       CLEAR     68  54  60 W6        29.89S
JEFFERSON CITY CLEAR     69  59  70 CALM      29.89R
ROLLA          CLEAR     61  57  87 S9        29.92R
SEDALIA        CLEAR     71  53  52 W5        29.91S
WHITEMAN AFB   CLEAR     64  55  72 SW5       29.89S
WARRENSBURG    CLEAR     64  52  63 SW5       29.90S
OSAGE BEACH    CLEAR     63  59  87 S3        29.94R

$$
MOZ051-052-059>065-290400-
...EAST CENTRAL MISSOURI...

CITY           SKY/WX    TMP DP  RH WIND       PRES   REMARKS
ST LOUIS INTL  PTCLDY    72  56  57 SW8       29.89R
SPIRIT OF STL  CLEAR     67  58  72 SW6       29.88R
ST CHARLES     CLEAR     66  60  81 CALM      29.86R

$$
MOZ072>076-082>087-097>100-106>115-290400-
...SOUTH CENTRAL AND SOUTHEAST MISSOURI...

CITY           SKY/WX    TMP DP  RH WIND       PRES   REMARKS
CAPE GIRARDEAU PTCLDY    66  62  87 SW6       29.91R
FARMINGTON     CLEAR     63  58  83 CALM      29.94F
WEST PLAINS    CLOUDY    61  57  87 CALM      29.98R

$$


USA.gov is the U.S. government's official web portal to all federal, state and local government web resources and services.